Вернуться в каталог

ARIANE 5 R/B

АктивенGTO
NORAD 26496·ROCKET BODY·🇫🇷 France

Запущен Sep 14, 2000 с Guiana Space Centre

Loading…

TLE

УстаревающийSource: Space-Track

Эпоха: Sep 14, 2026, 12:53 UTC

1 26496U 00054C   26257.53743193 -.00000126  00000-0  82982-3 0  9995
2 26496   6.8649 184.8383 7170481 354.4660   0.5973  2.24235871212972

Отслеживайте ARIANE 5 R/B в реальном времени с AllMySat

Download on the App Store